Location: Madrid
(40.4000°N, 3.6830°W)
Time: 21:15:07
(UTC+01:00)

ISS - Pass Details

Date: 26 February 2021
Orbit: 417 x 422 km, 51.6° (Epoch: 26 February)

Event Time Altitude Azimuth Distance (km) Brightness Sun altitude
Exits shadow 05:37:43 19° 36° (NE) 1,059 -1.3 -26.4°
Drops below altitude 10° 05:38:52 10° 44° (NE) 1,497 -0.3 -26.2°
Sets 05:41:01 0° 50° (NE) 2,364 1.0 -25.8°
